Showing default

LUOJIA-1 01, 43485

Orbit data source: Space-Track

LUOJIA-1 01, 43485 is a payload satellite owned by Wuhan daxue (CN) in SSO that was launched on Sat, 02 Jun 2018 UTC via a CHANG ZHENG 2D launch vehicle from the Jiuquan Satellite Launch Center, China (JSC). Payload-class satellites include a variety of spacecraft equipped with specific instruments for various scientific and technological missions. These include communications satellites like Starlink; space stations such as the ISS; scientific satellites like the Hubble; Earth observation satellites from companies like Planet Labs, Umbra, and HawkEye 360; GPS; miniature CubeSats for education and research; and military/defense satellites.

Loading next visibility...
Identifier
43485, 2018-048B
Orbit
SSO
Last TLE update
7 hours ago
Origin
Manufacturer
Wuhan daxue
Mission
Operational Amateur Imaging
Bus & Motor
CUBESAT 6U, Unknown motor
Mass
10 kg wet, 10 kg dry
Launch date (UTC)
2018-06-02 (7 years ago)
Launch vehicle
CHANG ZHENG 2D
Launch site
Jiuquan Satellite Launch Center, China (JSC)
Object type
Payload
Rocket body
Debris
Shape & HBR
Box + 1 Pan, 0.5 m
Radar Cross Section
0.092 m², Medium (>0.1 m² and < 1m²)

Expand to show TLE details & history

TLE from 7 hours ago
0 LUOJIA-1 01
1 43485U 18048B   25182.90436908  .00001542  00000-0  18569-3 0  9996
2 43485  97.8428 261.5731 0009305 182.8896 177.2267 14.85289040382183
Epoch: 2025-07-01T21:42Z
TLE epoch observation values (Epoch: 2025-07-01T21:42:17.488Z)
Latitude
-0.00001°
Longitude
15.8071°
Altitude
622.208 km
Speed
7.544 km/s
True Right ascension
17h 26m 17s
True Declination
0° 00' 00"
Sunlit
Object was in full shadow at epoch
Visualization orbit readout
Latitude
21.51514°
Longitude
12.98061°
Altitude
621.54 km
Speed
7.547 km/s
Apparent Right ascension
19h 57m 29s
Apparent Declination
-31° 19' 53"
Sunlit
Object is in full shadow
Visualization observer readout
Local Sidereal Time
15:57:32
Azimuth
132.297° SE
Elevation
-0.342°
Doppler factor
1
Orbital elements
Apogee altitude
616.212 km
Perigee altitude
603.208 km
Semi-major axis
6,987.847 km
Eccentricity
0.00093
Inclination
97.8428°
RAAN
261.5731°
Arg. of periapsis
182.8896°
True anomaly
Unknown
Mean anomaly
177.2267°
Eccentric anomaly
Unknown
Mean motion
3.71559 °/min
Orbital period
96.89 mins
BSTAR
0.00018569
Loading maneuver chart data...
Loading SW <> Apogee altitude chart data...
Loading historical data...
Loading historical data...
Loading historical data...
Loading historical data...
Loading historical data...
Loading historical data...
Loading historical data...
Other satellites on launch #48 in the year 2018 (2018-06-02 UTC)

LUOJIA-1 01 Visibility forecast

Observer location: undefined°, undefined°

Span
Click to sort rows by Start time (UTC) header in descending order
Start Az.
Max El. time (UTC)
Max El. Az.
Max El.
End time (UTC)
End Az.
6 mins2025-07-02 04:19:09.773Z113.736° SE2025-07-02 04:22:09.773Z66.331° ENE19.767°2025-07-02 04:25:09.773Z20.156° NNE
6 mins2025-07-02 05:55:09.773Z208.094° SW2025-07-02 05:58:09.773Z271.813° WNW27.908°2025-07-02 06:01:09.773Z323.265° NNW
6 mins2025-07-02 17:42:09.773Z41.849° NE2025-07-02 17:44:09.773Z93.065° ESE33.529°2025-07-02 17:48:09.773Z169.395° S
|